STARLINK-32141, 60290

Orbit data source: Space-Track

STARLINK-32141, 60290 is a payload satellite owned by SpaceX/Seattle (US) in LEO that was launched on Sun, 28 Jul 2024 UTC via an FALCON 9 launch vehicle from the Air Force Eastern Test Range (AFETR). Payload-class satellites include a variety of spacecraft equipped with specific instruments for various scientific and technological missions. These include communications satellites like Starlink; space stations such as the ISS; scientific satellites like the Hubble; Earth observation satellites from companies like Planet Labs, Umbra, and HawkEye 360; GPS; miniature CubeSats for education and research; and military/defense satellites.

Loading next visibility...
Identifier
60290, 2024-132N
Orbit
LEO
Last TLE update
7 hours ago
Origin
Manufacturer
SpaceX/Seattle
Mission
Operational spacecraft
Bus & Motor
STARLINK V2M, Unknown motor
Mass
730 kg wet, ~700 kg dry
Launch date (UTC)
2024-07-28 (11 months ago)
Launch vehicle
FALCON 9
Launch site
Air Force Eastern Test Range (AFETR)
Object type
Payload
Rocket body
Debris
Shape & HBR
Unknown
Radar Cross Section
Large (>1 m²)

Expand to show TLE details & history

TLE from 7 hours ago
0 STARLINK-32141
1 60290U 24132N   25182.11452870 -.00002419  00000-0 -69610-4 0  9999
2 60290  53.1597 140.9353 0001286  96.5959 263.5188 15.30177053 53041
Epoch: 2025-07-01T02:44Z
TLE epoch observation values (Epoch: 2025-07-01T02:44:55.279Z)
Latitude
-0.00004°
Longitude
-179.70969°
Altitude
476.283 km
Speed
7.629 km/s
True Right ascension
09h 23m 44s
True Declination
0° 00' 00"
Sunlit
Object was in daylight at epoch
Visualization orbit readout
Latitude
-48.85911°
Longitude
57.38899°
Altitude
492.863 km
Speed
7.618 km/s
Apparent Right ascension
05h 46m 55s
Apparent Declination
-65° 51' 10"
Sunlit
Object is in daylight
Visualization observer readout
Local Sidereal Time
21:44:45
Azimuth
148.12° SSE
Elevation
-48.155°
Doppler factor
1
Orbital elements
Apogee altitude
476.421 km
Perigee altitude
474.659 km
Semi-major axis
6,853.677 km
Eccentricity
0.00013
Inclination
53.1597°
RAAN
140.9353°
Arg. of periapsis
96.5959°
True anomaly
Unknown
Mean anomaly
263.5188°
Eccentric anomaly
Unknown
Mean motion
3.82523 °/min
Orbital period
94.11 mins
BSTAR
-0.00006961
Loading maneuver chart data...
Loading SW <> Apogee altitude chart data...
Loading historical data...
Loading historical data...
Loading historical data...
Loading historical data...
Loading historical data...
Loading historical data...
Loading historical data...

STARLINK-32141 Visibility forecast

Observer location: undefined°, undefined°

Span
Click to sort rows by Start time (UTC) header in descending order
Start Az.
Max El. time (UTC)
Max El. Az.
Max El.
End time (UTC)
End Az.
5 mins2025-07-01 23:17:22.107Z193.556° SSW2025-07-01 23:20:22.107Z118.286° SE28.955°2025-07-01 23:22:22.107Z74.416° E
4 mins2025-07-02 00:56:22.107Z286.56° WNW2025-07-02 00:58:22.107Z345.039° N26.317°2025-07-02 01:00:22.107Z26.056° NE
4 mins2025-07-02 05:53:22.107Z346.963° N2025-07-02 05:54:22.107Z14.02° NNE28.048°2025-07-02 05:57:22.107Z91.174° ESE
4 mins2025-07-02 07:31:22.107Z266.561° W2025-07-02 07:32:22.107Z239.38° WSW26.412°2025-07-02 07:35:22.107Z170.412° S
|